Погода Бологое

Поиск расширенной информации на нашем сайте:

Полезная информация:

Новости сайта



02.01.2020
Опубликован Долгосрочный прогноз погоды по городам России и ближнего зарубежья на январь 2020 года.
Карты: Прогноз на январь и февраль 2020 года, Сравнение прогнозируемой аномалии приземной температуры воздуха на январь 2020 года по разным моделям.




Погода Бологое - сегодня

Время (UTC), дата Ветер
(°,м/с) 
Видим.   Явления Облачность Т
(°С)
Тd
(°С)
f(%) Тe
(°С)
Pmin
(гПа)
dP
(гПа)
Po
(мм)
O2
(г/м3)
Тmin Tmax R s Состояние
почвы
21 29.11.20 100 (В) 4000 м  слаб. снег  10/8 300 м средняя 
[Frnb|As op]
+0.5 +0 96 -1  1026.2  -0.3  752  302           
00 30.11.20 110 (В) 4000 м  дымка{снег}  10/10 300 м 
[St]
+1 +0.6 97 -1  1025.8  -0.4  752  302           
03 30.11.20 110 (В) 4000 м  дымка  10/10 300 м 
[St]
+1.4 +1 97 1025.3  -0.4  751  301  -0.5       
06 30.11.20 110 (В) 2000 м  слаб. дождь  10/8 300 м средняя 
[Frnb|As op]
+1.4 +1.1 98 +1  1025.3  751  301  -0.5    равномерный
мокрый или
старый снег
100% 
09 30.11.20 120 (ЮВ) 4000 м  слаб. дождь  10/8 300 м средняя 
[Frnb|As op]
+1.2 +0.9 98 +1  1024.6  -0.7  751  301           
12 30.11.20 130 (ЮВ) 4000 м  слаб. снег{дождь}  10/8 300 м средняя 
[Frnb|As op]
+0.8 +0.2 96 -1  1023.7  -0.9  750  301           
15 30.11.20 180 (Ю) 4000 м  дымка{снег}  10/10 300 м 
[St]
+0.6 +0.2 97 -1  1024  0.2  750  302         
18 30.11.20 180 (Ю) 10 км  {снег}  9/9 300 м 
[St]
-0.1 -2.3 85 -2  1024.7  0.7  751  303    +1.7     
21 30.11.20 170 (Ю) 10 км    9/9 600 м 
[Sc]
-0.9 -3.1 85 -3  1025.4  0.6  751  304           
00 01.12.20 150 (ЮВ) 10 км    9/9 600 м 
[Sc]
-1 -3.6 82 -3  1025.2  -0.2  751  304           
03 01.12.20 170 (Ю) 10 км    9/9 600 м 
[Sc]
-1.1 -3 87 -3  1025.9  0.7  752  304  -1.3         
06 01.12.20 170 (Ю) 10 км    9/9 600 м 
[Sc]
-1.1 -3 87 -3  1025.9  752  305  -1.3      равномерный
мокрый или
старый снег
100% 
09 01.12.20 180 (Ю) 10 км    9/9 600 м 
[Sc]
-0.4 -3 83 -2  1028.4  1.4  753  304           
12 01.12.20 180 (Ю) 10 км    9/9 600 м 
[Sc]
-0.2 -3.8 77 -1  1029.6  1.2  754  305           
15 01.12.20 190 (Ю) 10 км    9/9 600 м 
[Sc]
-1 -3.2 85 1031.2  1.5  755  306           
21 01.12.20 190 (Ю) 10 км    9/9 600 м 
[Sc]
-1.4 -2.9 89 -2  1033.3  0.9  757  307           
00 02.12.20 200 (Ю) 10 км    9/9 600 м 
[Sc]
-1.6 -4.4 81 -3  1034.4  758  308           
03 02.12.20 190 (Ю) 10 км    9/9 600 м 
[Sc]
-1.6 -4.1 83 -1  1034.5  0.1  758  308  -1.6         
06 02.12.20 180 (Ю) 10 км    9/9 600 м 
[Sc]
-1.8 -4.1 84 -3  1035.1  0.5  758  308  -1.8      <0.5  мокрый или
старый снег
50-90% 
09 02.12.20 170 (Ю) 10 км    9/9 600 м 
[Sc]
-2 -4.1 85 -4  1035.6  0.5  759  308           
12 02.12.20 150 (ЮВ) 10 км    9/9 600 м 
[Sc]
-2.6 -5.1 83 -4  1035.3  -0.3  758  309           
15 02.12.20 150 (ЮВ) 4000 м  дымка  10/10 300 м 
[St]
-4.4 -5.4 93 -6  1035.1  -0.3  758  311           
18 02.12.20 080 (В) 4000 м  дымка  10/10 300 м 
[St]
-4.3 -5.2 93 -4  1034.5  -0.6  758  311    -1.7       
21 02.12.20 100 (В) 4000 м  дымка  10/10 300 м 
[St]
-2.9 -3.9 93 -4  1033  -1.4  757  309           
00 03.12.20 130 (ЮВ) 10 км    10/10 300 м 
[St]
-3.3 -5.6 84 -6  1032.1  -0.8  756  309           
Время (UTC), дата Ветер
(°,м/с) 
Видим.   Явления Облачность Т
(°С)
Тd
(°С)
f(%) Тe
(°С)
Pmin
(гПа)
dP
(гПа)
Po
(мм)
O2
(г/м3)
Тmin Tmax R s Состояние
почвы

Для получения пояснительной информации подведите курсор к названию столбца.

ПОГОДА Бологое - архив

Всё, что Вы хотите узнать о погоде Бологое - удобно и подробно!

Выберите нужную дату (начиная с 1 января 2019* года) и нажмите кнопку "Найти".
Будут отображены архивные сводки погоды по пункту Бологое, начиная с указанной даты.


Отображать данные в формате CSV (для использования в таблицах Excel)


Внимание! Наш архив погоды предназначен исключительно для личного некоммерческого использования в познавательных целях. Если Вам необходимы официальные справки о состоянии погоды (для производственных, юридических, коммерческих и т.п. целей), обращайтесь в органы Росгидромета.

*Примечание: данная дата относится к архиву по метеостанциям СССР (Россия, СНГ, Балтия).
Архив по метеостанциям Зарубежной Европы и Азии (кроме Китая) хранится 10 дней, по другим регионам земного шара (Китай, Африка, Америка, Австралия, Океания) - 1 день.

Бологое - район местоположения метеостанции


Название, широта, долгота, высота метеостанции:
Бологое 57.9°ш. 34.1°д. 188 м над ур. моря [Российская Федерация]

Дополнительная информация

В oтличие oт бoльшинства пoгoдных сайтoв мы публикуем пoдрoбную метеoинфoрмацию в детальнoм прoфессиoнальнoм фoрмате.

Характеристики температуры и влажнoсти вoздуха измеряются на высoте 2 м в тени вдали oт зданий и деревьев.
Скoрoсть ветра измеряется на высoте 10 м (на урoвне рoста челoвека скoрoсть ветра ниже в 1.5-2 раза). Если метеoстанция нахoдится в гoрoде или в лесу, тo скoрoсть ветра занижена на 2-4 м/с пo сравнению с oткрытым местoм. Скoрoсть ветра над акватoриями крупных рек и oзёр, а также на вершинах хoлмoв на 2-5 м/с выше, чем в oбычных услoвиях.
Атмoсфернoе давление в разных тoчках местнoсти мoжет значительнo oтличаться oт давления на метеoстанции, в зависимoсти oт услoвий рельефа (при пoдъёме на 10 м давление пoнижается примернo на 1 мм рт.ст.).